COSMOS 252 DEB *, 5322

Orbit data source: Space-Track

COSMOS 252 DEB *, 5322 is space debris in LEO originally from a launch on Fri, 01 Nov 1968 UTC launched from the Tyuratam Missile And Space Complex (TTMTR). Debris objects in space refer to the collection of defunct objects orbiting the Earth. Examples of debris include non-operational satellites, rocket bodies, and fragments generated from explosions, collisions, or faulty payload assembly.

Loading next visibility...
Identifier
5322, 1968-097CJ
Orbit
LEO
Country
Flag of CISCIS
Related business
Manufacturer
Unknown
Mission
Spacecraft
Bus & Motor
Unknown
Mass
Unknown
Launch date (UTC)
1968-11-01 (58 years ago)
Launch vehicle
Unknown
Launch site
Tyuratam Missile And Space Complex (TTMTR)
Object type
Payload
Rocket body
Debris
Shape & HBR
Unknown shape, 0.1 m
Radar Cross Section
Medium (>0.1 m² and <1 m²)

Expand to show TLE details & history
Last TLE update: 1 day ago

TLE from 1 day ago
0 COSMOS 252 DEB *
1 05322U 68097CJ  26174.38649409  .00000322  00000-0  29012-3 0  9999
2 05322  61.3246  59.8595 0687878 311.9201  42.5057 13.21366280714656
Epoch: 2026-06-23T09:16Z
TLE epoch observation values (Epoch: 2026-06-23T09:16:33.089Z)
Latitude
0.00001°
Longitude
9.16284°
Altitude
815.453 km
Speed
7.624 km/s
True Right ascension
03h 59m 26s
True Declination
0° 00' 00"
Sunlit
Object was in daylight at epoch
Visualization orbit readout
Latitude
Unknown
Longitude
Unknown
Altitude
Unknown
Speed
Unknown
Apparent Right ascension
Unknown
Apparent Declination
Unknown
Sunlit
N/A
Visualization observer readout
Local Sidereal Time
22:41:03
Azimuth
Unknown
Elevation
Unknown
Doppler factor
Unknown
Orbital elements
Apogee altitude
1,698.415 km
Perigee altitude
658.792 km
Semi-major axis
7,556.74 km
Eccentricity
0.06879
Inclination
61.3246°
RAAN
59.8595°
Arg. of periapsis
311.9201°
True anomaly
48.18164°
Mean anomaly
42.5057°
Eccentric anomaly
45.3075°
Mean motion
3.30401 °/min
Orbital period
108.96 mins
BSTAR
0.00029012
Loading maneuver chart data...
Computing Atmospheric mass density...
Loading historical data...
Loading historical data...
Loading historical data...
Loading historical data...
Loading historical data...
Loading historical data...
Loading historical data...

Documentation

Showing up to 5 results
|